Location: Byhalia Creek
(34.8270°N, 89.8040°W)
Time: 08:34:28
(UTC+00:00)

Cosmos 2239 Rocket - Pass Details

Date: 22 April 2026
Orbit: 954 x 989 km, 82.9° (Epoch: 15 May)

Event Time Altitude Azimuth Distance (km) Brightness Sun altitude
Exits shadow 02:04:51 - 177° (S) 3,170 6.9 -17.6°
Reaches altitude 10° 02:06:09 10° 175° (S) 2,683 6.5 -17.8°
Maximum altitude 02:12:15 70° 93° (E) 1,024 4.4 -18.9°
Drops below altitude 10° 02:18:26 10° 11° (NNE) 2,722 7.1 -20.0°
Sets 02:20:58 0° 10° (N) 3,678 7.8 -20.4°
